Columbus, OH

8:37 AM EST on February 07, 2016 (GMT -0500)
Port Columbus International

Weather History for KCMH - January, 2014

Change the Weather History Date:

Tuesday, January 28, 2014

  Actual Average Record
Temperature  
Mean Temperature -2 °F 30 °F  
Max Temperature 6 °F 37 °F 66 °F (1914)
Min Temperature -11 °F 23 °F -15 °F (1963)
Degree Days  
Heating Degree Days 67 35  
Month to date heating degree days 1168 996  
Since 1 July heating degree days 3161 2987  
Cooling Degree Days 0 0  
Month to date cooling degree days 0 0  
Year to date cooling degree days 0 0  
Moisture  
Dew Point -13 °F    
Average Humidity 64    
Maximum Humidity 78    
Minimum Humidity 49    
Precipitation  
Precipitation 0.00 in 0.08 in 0.80 in (2009)
Month to date precipitation 2.39 2.48  
Year to date precipitation 2.39 2.48  
Snow  
Snow 0.00 in 0.20 in 4.70 in (2009)
Month to date snowfall 17.6 8.3  
Since 1 July snowfall 35.0 14.4  
Snow Depth 4.00 in    
Sea Level Pressure  
Sea Level Pressure 30.44 in    
Wind  
Wind Speed 4 mph (SW)    
Max Wind Speed 12 mph    
Max Gust Speed 14 mph    
Visibility 10 miles    
Events      
T = Trace of Precipitation, MM = Missing Value Source: NWS Daily Summary

Daily Weather History Graph

Daily Weather History Graph

Search for Another Location

Airport or City:

Trip Planner

Search our weather history database for the weather conditions in past years. The results will help you decide how hot, cold, wet, or windy it might be!

Date:

Astronomy

Jan. 28, 2014 Rise Set
Actual Time 7:43 AM EST 5:45 PM EST
Civil Twilight 7:14 AM EST 6:14 PM EST
Nautical Twilight 6:42 AM EST 6:47 PM EST
Astronomical Twilight 6:10 AM EST 7:19 PM EST
Moon 5:24 AM EST (1/28) 3:34 PM EST (1/28)
Length of Visible Light 11h 00m
Length of Day
10h 02m
Waning Crescent, 7% of the Moon is Illuminated
Jan 28
Waning Crescent
Jan 30
New
Feb 6
First Quarter
Feb 14
Full
Feb 22
Last Quarter

Hourly Weather History & Observations

Time (EST) Temp. Windchill Dew Point Humidity Pressure Visibility Wind Dir Wind Speed Gust Speed Precip Events Conditions
12:51 AM -6.0 °F -22.6 °F -15.0 °F 65% 30.45 in 10.0 mi WNW 9.2 mph - N/A   Clear
1:51 AM -5.1 °F -20.4 °F -16.1 °F 59% 30.45 in 10.0 mi NW 8.1 mph - N/A   Clear
2:51 AM -7.1 °F -19.9 °F -17.0 °F 62% 30.46 in 10.0 mi WNW 5.8 mph - N/A   Clear
3:51 AM -8.0 °F -21.0 °F -17.0 °F 65% 30.47 in 10.0 mi WNW 5.8 mph - N/A   Clear
4:51 AM -7.1 °F -18.1 °F -17.0 °F 62% 30.46 in 10.0 mi WNW 4.6 mph - N/A   Clear
5:51 AM -8.0 °F - -16.1 °F 68% 30.49 in 10.0 mi Calm Calm - N/A   Clear
6:51 AM -8.0 °F - -16.1 °F 68% 30.51 in 10.0 mi Calm Calm - N/A   Clear
7:51 AM -11.0 °F -20.4 °F -16.1 °F 78% 30.50 in 10.0 mi South 3.5 mph - N/A   Partly Cloudy
8:51 AM -8.0 °F - -14.1 °F 75% 30.52 in 10.0 mi Calm Calm - N/A   Mostly Cloudy
9:51 AM -4.0 °F - -13.0 °F 65% 30.52 in 10.0 mi Calm Calm - N/A   Mostly Cloudy
10:51 AM -2.0 °F - -11.9 °F 63% 30.52 in 10.0 mi Calm Calm - N/A   Mostly Cloudy
11:51 AM 1.0 °F -6.7 °F -11.0 °F 57% 30.49 in 10.0 mi Variable 3.5 mph - N/A   Mostly Cloudy
12:51 PM 3.0 °F -9.3 °F -11.9 °F 50% 30.47 in 10.0 mi SSW 6.9 mph - N/A   Mostly Cloudy
1:51 PM 3.9 °F -6.9 °F -11.0 °F 50% 30.42 in 10.0 mi SW 5.8 mph - N/A   Mostly Cloudy
2:51 PM 5.0 °F -2.1 °F -11.0 °F 48% 30.41 in 10.0 mi SW 3.5 mph - N/A   Mostly Cloudy
3:51 PM 6.1 °F -5.6 °F -9.0 °F 50% 30.41 in 10.0 mi South 6.9 mph - N/A   Mostly Cloudy
4:51 PM 5.0 °F -8.1 °F -9.0 °F 52% 30.41 in 10.0 mi South 8.1 mph - N/A   Mostly Cloudy
5:51 PM 3.9 °F -3.4 °F -9.9 °F 53% 30.40 in 10.0 mi South 3.5 mph - N/A   Mostly Cloudy
6:51 PM 1.9 °F -7.6 °F -9.0 °F 60% 30.39 in 10.0 mi South 4.6 mph - N/A   Scattered Clouds
7:51 PM 1.0 °F -6.7 °F -9.9 °F 60% 30.39 in 10.0 mi South 3.5 mph - N/A   Clear
8:51 PM -0.9 °F - -9.9 °F 66% 30.38 in 10.0 mi Calm Calm - N/A   Clear
9:51 PM -2.0 °F - -9.9 °F 69% 30.37 in 10.0 mi Calm Calm - N/A   Clear
10:51 PM -4.0 °F - -11.9 °F 69% 30.38 in 9.0 mi Calm Calm - N/A   Clear
11:51 PM -8.0 °F -16.9 °F -13.0 °F 79% 30.37 in 10.0 mi SE 3.5 mph - N/A   Clear